Weather History for York, PA

Change the Weather History Date:

Tuesday, June 18, 2013

  Actual Average Record
Temperature  
Mean Temperature 70 °F -  
Max Temperature 77 °F 83 °F 93 °F (2006)
Min Temperature 64 °F 62 °F 50 °F (2002)
Cooling Degree Days 4    
Growing Degree Days 20 (Base 50)    
Moisture  
Dew Point 64 °F    
Average Humidity 82    
Maximum Humidity 90    
Minimum Humidity 62    
Precipitation  
Precipitation 0.20 in - - ()
Sea Level Pressure  
Sea Level Pressure 29.87 in    
Wind  
Wind Speed 1 mph (SSW)    
Max Wind Speed 8 mph    
Max Gust Speed -    
Visibility 7 miles    
Events Rain , Thunderstorm    
Averages and records for this station are not official NWS values.
T = Trace of Precipitation, MM = Missing Value Source: NWS Daily Summary

Daily Weather History Graph

Daily Weather History Graph

Search for Another Location

Airport:

Trip Planner

Search our weather history database for the weather conditions in past years. The results will help you decide how hot, cold, wet, or windy it might be!

Date:

Astronomy

Jun. 18, 2013 Rise Set
Actual Time 5:38 AM EDT 8:38 PM EDT
Civil Twilight 5:05 AM EDT 9:11 PM EDT
Nautical Twilight 4:24 AM EDT 9:53 PM EDT
Astronomical Twilight 3:35 AM EDT 10:41 PM EDT
Moon 3:21 PM EDT 1:45 AM EDT
Length of Visible Light 16h 05m
Length of Day
15h 00m
Waxing Gibbous, 70% of the Moon is Illuminated
Jun 18
Waxing Gibbous
Jun 23
Full
Jun 30
Last Quarter
Jul 8
New
Jul 15
First Quarter

Hourly Weather History & Observations

Time (EDT) Temp. Dew Point Humidity Pressure Visibility Wind Dir Wind Speed Gust Speed Precip Events Conditions
12:53 AM 66.9 °F 63.0 °F 87% 29.91 in 8.0 mi Calm Calm - N/A   Clear
1:53 AM 66.9 °F 63.0 °F 87% 29.91 in 7.0 mi Calm Calm - N/A   Clear
2:53 AM 66.9 °F 63.0 °F 87% 29.88 in 9.0 mi Calm Calm - N/A   Clear
3:53 AM 66.9 °F 63.0 °F 87% 29.87 in 8.0 mi Calm Calm - N/A   Clear
4:53 AM 64.9 °F 61.0 °F 87% 29.88 in 7.0 mi Calm Calm - N/A   Partly Cloudy
5:53 AM 64.9 °F 62.1 °F 90% 29.88 in 3.0 mi Calm Calm - N/A   Clear
6:53 AM 66.9 °F 63.0 °F 87% 29.88 in 4.0 mi Calm Calm - N/A   Scattered Clouds
7:53 AM 69.1 °F 64.9 °F 87% 29.89 in 4.0 mi Calm Calm - N/A   Mostly Cloudy
8:53 AM 70.0 °F 66.0 °F 87% 29.89 in 4.0 mi Calm Calm - N/A   Mostly Cloudy
9:53 AM 75.0 °F 66.9 °F 76% 29.89 in 5.0 mi Calm Calm - N/A   Haze
10:53 AM 75.9 °F 66.0 °F 71% 29.88 in 7.0 mi Calm Calm - N/A   Overcast
11:24 AM 73.4 °F 66.2 °F 78% 29.88 in 3.0 mi NW 4.6 mph - 0.01 in Rain , Thunderstorm Light Thunderstorms and Rain
11:30 AM 73.4 °F 68.0 °F 83% 29.87 in 1.8 mi West 3.5 mph - 0.03 in Rain , Thunderstorm Thunderstorms and Rain
11:45 AM 71.6 °F 66.2 °F 83% 29.88 in 2.5 mi SW 5.8 mph - 0.06 in Rain , Thunderstorm Thunderstorms and Rain
11:51 AM 71.6 °F 66.2 °F 83% 29.88 in 4.0 mi SW 3.5 mph - 0.07 in Rain , Thunderstorm Light Thunderstorms and Rain
11:53 AM 71.1 °F 66.0 °F 84% 29.87 in 4.0 mi SSW 4.6 mph - 0.07 in Rain , Thunderstorm Light Thunderstorms and Rain
12:46 PM 71.6 °F 64.4 °F 78% 29.87 in 10.0 mi ESE 8.1 mph - 0.00 in   Scattered Clouds
12:53 PM 70.0 °F 64.0 °F 81% 29.87 in 10.0 mi SE 6.9 mph - 0.00 in Rain Light Rain
1:53 PM 73.9 °F 64.0 °F 71% 29.85 in 10.0 mi Calm Calm - 0.00 in   Mostly Cloudy
2:53 PM 75.9 °F 62.1 °F 62% 29.83 in 10.0 mi Calm Calm - N/A   Mostly Cloudy
3:53 PM 73.0 °F 66.0 °F 79% 29.84 in 8.0 mi Calm Calm - 0.01 in Rain Light Rain
4:53 PM 73.0 °F 69.1 °F 87% 29.83 in 9.0 mi SE 5.8 mph - 0.00 in Rain Light Rain
5:53 PM 72.0 °F 66.9 °F 84% 29.81 in 10.0 mi ESE 8.1 mph - 0.00 in   Clear
6:36 PM 71.6 °F 64.4 °F 78% 29.82 in 10.0 mi SE 3.5 mph - N/A   Mostly Cloudy
6:53 PM 71.1 °F 64.0 °F 78% 29.83 in 10.0 mi Calm Calm - N/A   Scattered Clouds
7:53 PM 69.1 °F 61.0 °F 75% 29.84 in 10.0 mi Calm Calm - 0.00 in Rain Light Rain
8:53 PM 66.9 °F 62.1 °F 84% 29.85 in 10.0 mi Calm Calm - 0.00 in   Mostly Cloudy
9:34 PM 66.2 °F 62.6 °F 88% 29.87 in 10.0 mi Calm Calm - N/A   Overcast
9:42 PM 66.2 °F 62.6 °F 88% 29.87 in 10.0 mi Calm Calm - N/A   Overcast
9:53 PM 66.9 °F 62.1 °F 84% 29.88 in 10.0 mi Calm Calm - N/A   Overcast
10:51 PM 64.4 °F 60.8 °F 88% 29.90 in 2.0 mi North 4.6 mph - 0.10 in Rain Heavy Rain
10:53 PM 64.9 °F 60.1 °F 84% 29.91 in 2.0 mi Calm Calm - 0.10 in Rain Rain
10:56 PM 66.2 °F 59.0 °F 78% 29.90 in 3.0 mi NNW 3.5 mph - 0.01 in Rain Rain
11:53 PM 64.0 °F 60.1 °F 87% 29.91 in 7.0 mi NW 3.5 mph - 0.02 in Rain Light Rain